| time (UTC) | temp C | wind direction | speed KPH | gust KPH | rain 1hr cm | rain 24hr cm | rain mn cm | humidity % | barometer mb |
| 20260504223052 | 32 | 216 | 12.9 | 20.9 | 0.00 | 0.00 | 0.00 | 59 | 1007.5 |
| 20260504221551 | 33 | 184 | 17.7 | 24.1 | 0.00 | 0.00 | 0.00 | 54 | 1007.7 |
| 20260504220058 | 33 | 211 | 11.3 | 25.7 | 0.00 | 0.00 | 0.00 | 46 | 1007.7 |
| 20260504214550 | 34 | 360 | 16.1 | 29.0 | 0.00 | 0.00 | 0.00 | 42 | 1007.8 |
| 20260504213041 | 34 | 224 | 14.5 | 29.0 | 0.00 | 0.00 | 0.00 | 43 | 1007.8 |
| 20260504211518 | 34 | 205 | 16.1 | 25.7 | 0.00 | 0.00 | 0.00 | 45 | 1007.8 |
| 20260504210018 | 35 | 204 | 9.7 | 25.7 | 0.00 | 0.00 | 0.00 | 44 | 1007.8 |
| 20260504204512 | 34 | 167 | 16.1 | 30.6 | 0.00 | 0.00 | 0.00 | 42 | 1007.9 |
| 20260504203013 | 35 | 168 | 17.7 | 29.0 | 0.00 | 0.00 | 0.00 | 42 | 1007.9 |
| 20260504201520 | 35 | 144 | 14.5 | 24.1 | 0.00 | 0.00 | 0.00 | 43 | 1008.0 |
| 20260504200008 | 34 | 143 | 12.9 | 22.5 | 0.00 | 0.00 | 0.00 | 42 | 1008.1 |
| 20260504194507 | 34 | 192 | 14.5 | 24.1 | 0.00 | 0.00 | 0.00 | 45 | 1008.2 |
| 20260504193007 | 34 | 188 | 14.5 | 30.6 | 0.00 | 0.00 | 0.00 | 45 | 1008.4 |
| 20260504191507 | 34 | 186 | 17.7 | 29.0 | 0.00 | 0.00 | 0.00 | 46 | 1008.7 |
| 20260504190003 | 34 | 240 | 14.5 | 29.0 | 0.00 | 0.00 | 0.00 | 46 | 1008.8 |
| 20260504184506 | 35 | 169 | 11.3 | 24.1 | 0.00 | 0.00 | 0.00 | 46 | 1008.8 |
| 20260504183002 | 35 | 163 | 14.5 | 24.1 | 0.00 | 0.00 | 0.00 | 47 | 1009.1 |
| 20260504181502 | 34 | 140 | 16.1 | 35.4 | 0.00 | 0.00 | 0.00 | 47 | 1009.4 |
| 20260504180055 | 35 | 159 | 16.1 | 32.2 | 0.00 | 0.00 | 0.00 | 46 | 1009.3 |
| 20260504174601 | 35 | 170 | 16.1 | 22.5 | 0.00 | 0.00 | 0.00 | 45 | 1009.4 |
| 20260504173057 | 34 | 128 | 8.0 | 22.5 | 0.00 | 0.00 | 0.00 | 47 | 1009.6 |
| 20260504171549 | 34 | 194 | 11.3 | 24.1 | 0.00 | 0.00 | 0.00 | 45 | 1009.8 |
| 20260504140110 | 30 | 59 | 0.0 | 1.6 | 0.00 | 0.00 | 0.00 | 63 | 1010.2 |
| 20260504081527 | 25 | 289 | 6.4 | 8.0 | 0.00 | 0.00 | 0.00 | 74 | 1009.2 |
| 20260504044541 | 27 | 325 | 6.4 | 11.3 | 0.00 | 0.00 | 0.00 | 75 | 1011.3 |
| 20260504043035 | 27 | 312 | 0.0 | 1.6 | 0.00 | 0.00 | 0.00 | 79 | 1011.4 |
| 20260504041528 | 27 | 308 | 4.8 | 8.0 | 0.00 | 0.00 | 0.00 | 79 | 1011.5 |
| 20260504040026 | 27 | 312 | 3.2 | 8.0 | 0.00 | 0.00 | 0.00 | 79 | 1011.3 |
| 20260504034533 | 27 | 13 | 0.0 | 0.0 | 0.00 | 0.00 | 0.00 | 81 | 1011.3 |
| 20260504033032 | 27 | 13 | 0.0 | 0.0 | 0.00 | 0.00 | 0.00 | 80 | 1011.3 |
| 20260504031541 | 27 | 13 | 0.0 | 0.0 | 0.00 | 0.00 | 0.00 | 80 | 1011.1 |
| 20260504030008 | 27 | 13 | 0.0 | 6.4 | 0.00 | 0.00 | 0.00 | 80 | 1011.0 |
| 20260504024514 | 28 | 144 | 0.0 | 0.0 | 0.00 | 0.00 | 0.00 | 82 | 1010.9 |
| 20260504023042 | 28 | 144 | 0.0 | 0.0 | 0.00 | 0.00 | 0.00 | 81 | 1010.7 |
| 20260504021541 | 28 | 144 | 0.0 | 0.0 | 0.00 | 0.00 | 0.00 | 81 | 1010.5 |
| 20260504020040 | 28 | 144 | 0.0 | 8.0 | 0.00 | 0.00 | 0.00 | 80 | 1010.5 |
| 20260504014536 | 28 | 143 | 1.6 | 8.0 | 0.00 | 0.00 | 0.00 | 79 | 1010.4 |
| 20260504013002 | 28 | 147 | 0.0 | 0.0 | 0.00 | 0.00 | 0.00 | 77 | 1010.1 |
| 20260504011559 | 29 | 147 | 0.0 | 8.0 | 0.00 | 0.00 | 0.00 | 74 | 1009.9 |
| 20260504010058 | 30 | 148 | 4.8 | 8.0 | 0.00 | 0.00 | 0.00 | 70 | 1009.7 |
| 20260504004550 | 30 | 173 | 6.4 | 11.3 | 0.00 | 0.00 | 0.00 | 67 | 1009.3 |
| 20260504003051 | 30 | 166 | 3.2 | 17.7 | 0.00 | 0.00 | 0.00 | 63 | 1009.0 |
| 20260504001606 | 31 | 238 | 6.4 | 12.9 | 0.00 | 0.00 | 0.00 | 58 | 1008.7 |
| 20260504000045 | 31 | 188 | 9.7 | 16.1 | 0.00 | 0.00 | 0.00 | 57 | 1008.5 |
| 20260503234543 | 31 | 213 | 9.7 | 17.7 | 0.00 | 0.00 | 0.00 | 52 | 1008.1 |
| 20260503233041 | 32 | 165 | 9.7 | 20.9 | 0.00 | 0.00 | 0.00 | 53 | 1008.0 |
| 20260503231541 | 32 | 279 | 6.4 | 20.9 | 0.00 | 0.00 | 0.00 | 53 | 1007.8 |
| 20260503230037 | 31 | 155 | 9.7 | 20.9 | 0.00 | 0.00 | 0.00 | 54 | 1007.7 |
| 20260503224538 | 31 | 178 | 12.9 | 22.5 | 0.00 | 0.00 | 0.00 | 50 | 1007.7 |